Regional Weather Roundup
Issued by NWS Upton, NY

Current Version | Previous Version | Graphics & Text | Print | Product List | Glossary Off
Versions: 1 2 3 4 5 6 7 8 9 10 11 12 13 14 15 16 17 18 19 20 21 22 23 24 25 26 27 28 29 30 31 32 33 34 35 36 37 38 39 40 41 42 43 44 45 46 47 48 49 50

000
ASUS41 KOKX 211105
RWROKX

REGIONAL WEATHER ROUNDUP
NATIONAL WEATHER SERVICE NEW YORK NY
600 AM EST SUN DEC 21 2014

NOTE: "FAIR" INDICATES FEW OR NO CLOUDS BELOW 12,000 FEET WITH NO
SIGNIFICANT WEATHER AND/OR OBSTRUCTIONS TO VISIBILITY.

NYZ071-072-176-178-NJZ106-104-211200-
NEW YORK CITY METRO AREA


CITY           SKY/WX    TMP DP  RH WIND       PRES   REMARKS
CENTRAL PARK   CLOUDY    31  24  75 VRB3      30.30R
LAGUARDIA APRT CLOUDY    32  25  75 VRB3      30.28R
KENNEDY INTL   CLOUDY    34  23  64 N7        30.29S WCI  28
NEWARK/LIBERTY CLOUDY    32  24  72 NW6       30.29R WCI  26
BRNX BOT. GARD   N/A    N/A N/A N/A W1        30.30R
TETERBORO      CLOUDY    31  25  78 N3        30.28R
$$

NYZ177-179-078>081-211200-
LONG ISLAND NEW YORK

CITY           SKY/WX    TMP DP  RH WIND       PRES   REMARKS
FARMINGDALE    CLOUDY    33  25  72 N7        30.28R WCI  27
ISLIP          CLOUDY    33  26  75 W7        30.26R WCI  27
SHIRLEY        CLOUDY    33  28  81 NW5       30.27S WCI  29
WESTHAMPTON    LGT SNOW  32  28  85 W3        30.28R FOG
MONTAUK POINT    N/A     40  36  86 NE9G16    30.24R WCI  34
$$

NYZ052-065-067-211200-
HUDSON VALLEY

CITY           SKY/WX    TMP DP  RH WIND       PRES   REMARKS
WHITE PLAINS   MOCLDY    29  24  82 NW7       30.25R WCI  22
NEWBURGH       CLOUDY    27  27 100 CALM      30.28R
MONTGOMERY     CLOUDY    28  25  88 N3        30.27S
POUGHKEEPSIE   CLOUDY    29  24  82 N3        30.29S
ALBANY         FLURRIES  28  20  71 N3        30.32R
$$

NJZ001-105-106-008-010-013-015-019>022-104-211200-
NEW JERSEY

CITY           SKY/WX    TMP DP  RH WIND       PRES   REMARKS
NEWARK/LIBERTY CLOUDY    32  24  72 NW6       30.29R WCI  26
TETERBORO      CLOUDY    31  25  78 N3        30.28R
CALDWELL       CLOUDY    30  25  81 NE5       30.29R WCI  25
MORRISTOWN     CLOUDY    32  27  80 CALM      30.28R
SOMERVILLE     CLOUDY    32  22  66 CALM      30.28R
SUSSEX         CLOUDY    28  26  92 CALM      30.28R
ANDOVER          N/A     28  25  88 CALM      30.27R
TRENTON        CLOUDY    29  21  72 W3        30.29R
MILLVILLE      CLOUDY    29  25  85 CALM      30.31R
ATLANTIC CITY  CLOUDY    28  23  81 CALM      30.30R
WRIGHTSTOWN    CLOUDY    30  22  74 W5        30.27R WCI  25
TOMS RIVER     CLOUDY    27  23  86 W3        30.30R
BELMAR         CLOUDY    30  19  64 NW6       30.27S WCI  24
$$

PAZ047>061-062-071-211200-
EASTERN PENNSYLVANIA

CITY           SKY/WX    TMP DP  RH WIND       PRES   REMARKS
PHILADELPHIA   MOCLDY    32  22  66 NW5       30.32R WCI  27
ALLENTOWN      CLOUDY    31  20  63 NW6       30.29R WCI  25
SCRANTON       CLOUDY    29  19  66 NW3       30.26R
$$

CTZ002-004>006-009-010-012-RIZ004-006-007-MAZ004-011-015-211200-
SOUTHERN NEW ENGLAND
 IN CT

CITY           SKY/WX    TMP DP  RH WIND       PRES   REMARKS
BRADLEY INTL   CLOUDY    31  28  89 N7        30.27S WCI  24
HARTFORD       LGT SNOW  31  29  92 N8        30.29R FOG     WCI  23
DANBURY        CLOUDY    29  24  82 CALM      30.27R
WTRBRY/OXFORD  CLOUDY    30  23  74 NE6       30.25R FOG     WCI  24
BRIDGEPORT     CLOUDY    33  29  85 N5        30.27S WCI  29
MERIDEN        LGT SNOW  31  28  89 N5        30.28R FOG     WCI  26
NEW HAVEN      CLOUDY    35  29  78 N9        30.27S HAZE    WCI  28
CHESTER        LGT SNOW  32  32 100 N7        30.25S WCI  26
GROTON         LGT SNOW  32  31  96 N8        30.25R FOG     WCI  25
WILLIMANTIC    CLOUDY    33  27  78 N6        30.27R WCI  28

 IN RI

CITY           SKY/WX    TMP DP  RH WIND       PRES   REMARKS
PROVIDENCE     CLOUDY    33  31  92 VRB7      30.28R WCI  27
BLOCK ISLAND   CLOUDY    39  34  81 NE13G20   30.23R WCI  32
WESTERLY       CLOUDY    35  32  88 NE7       30.25S WCI  29

 IN MA

CITY           SKY/WX    TMP DP  RH WIND       PRES   REMARKS
BOSTON         FLURRIES  32  28  85 N13       30.30R WCI  22
WORCESTER      CLOUDY    26  25  96 NE8       30.25R WCI  18
WESTFIELD      LGT SNOW  31  28  89 N7        30.28S FOG     WCI  24
PROVINCETOWN   CLOUDY    39  30  70 NE13      30.27R WCI  32
NANTUCKET      CLOUDY    39  33  79 NE7       30.24S WCI  34
$$

ANZ330-335-338-340-345-350-353-355-211200-
COASTAL MARINE OBSERVATIONS


STATION/POSITION TIME  SKY/WX   TEMP    WIND        PRES    VSBY  WAVE
                                AIR SEA DIR/SP/G                  HT/PER
                 (UTC)          (F)     (DEG/KT/KT) (MB)    (MI)  (FT/S)
NY HARB ENTRANCE 1100            35 47  310/  8/ 12 1025.5          1/10
4S FIRE IS       1100               46                N/A           1/ 5
20S FIRE ISLAND  1000            37 49              1025.2          1/ 5
23SW MTP         1100                                 N/A           3/ 5
HUDSON CANYON    1100            40 55  310/ 10/ 12 1024.2          2/ 5
EXECUTION ROCKS  1100            33 41  330/  8/ 12   N/A
WESTERN LI SOUND 1100            32     340/  6/  8   N/A           0
CENTRAL LI SOUND 1100            34 44   20/ 10/ 12   N/A           1
EASTERN LI SOUND NOT AVBL
ROBBINS REEF     1100            32        CALM     1024.4
$$


>>>>>>>>>>>>>>>>>>>>>>>>>>>> KEY <<<<<<<<<<<<<<<<<<<<<<<<<<<
>                                                          <
>     SKY/WX - SKY CONDITION/PRESENT WEATHER               <
>     TMP    - TEMPERATURE IN FAHRENHEIT                   <
>     DP     - DEWPOINT IN FAHRENHEIT                      <
>     RH     - RELATIVE HUMIDITY IN PERCENT                <
>     WIND   - DIRECTION AND SPEED IN MPH                  <
>     PRES   - MEAN SEA LEVEL PRESSURE IN INCHES OF HG     <
>     WCI    - WIND CHILL INDEX                            <
>     VSB    - VISIBILITY IN MILES                         <
>     HX     - HEAT INDEX                                  <
>     TC     - TEMPERATURE IN CELSIUS                      <
>     VRB    - VARIABLE WIND DIRECTION                     <
>                                                          <
>>>>>>>>>>>>>>>>>>>>>>>>>>>> KEY <<<<<<<<<<<<<<<<<<<<<<<<<<<





USA.gov is the U.S. government's official web portal to all federal, state and local government web resources and services.